Regional Weather Roundup
Issued by NWS New Orleans/Baton Rouge, LA

Home | Current Version | Previous Version | Text Only | Print | Product List | Glossary On
Versions: 1 2 3 4 5 6 7 8 9 10 11 12 13 14 15 16 17 18 19 20 21 22 23 24 25 26 27 28
000
ASUS44 KLIX 261712
RWRLIX
NEW ORLEANS REGIONAL WEATHER ROUNDUP
NATIONAL WEATHER SERVICE NEW ORLEANS LA
1200 PM CDT THU MAY 26 2016

NOTE: "FAIR" INDICATES FEW OR NO CLOUDS BELOW 12,000 FEET WITH NO
      SIGNIFICANT WEATHER AND/OR OBSTRUCTIONS TO VISIBILITY.
      SKY/WX - SKY CONDITION AND SIGNIFICANT WEATHER.
      TMP - AIR TEMPERATURE.     DP    - DEWPOINT TEMPERATURE.
      RH  - RELATIVE HUMIDITY.   PRES  - PRESSURE.
      HI  - HEAT INDEX.          WCI   - WIND CHILL INDEX.

*  THESE STATIONS ARE NOT NWS OR FAA STATIONS AND ARE NOT UNDER
   NWS QUALITY CONTROL.

LAZ038-040-048-061>063-065>067-069-261800-
SOUTHEAST LOUISIANA

CITY           SKY/WX    TMP DP  RH WIND       PRES   REMARKS
N.O. AUDUBON     N/A     87  72  61 MISG        N/A
N.O. INTL ARPT PTSUNNY   87  72  60 SE12      30.09F
N.O. LAKEFRONT MOSUNNY   86  68  54 SE12      30.09F
N.O. DOWNTOWN*   N/A     86  71  60 SE10      30.10F
RESERVE*         N/A     88  72  58 SE12      30.07F HX  95
SLIDELL        MOSUNNY   85  70  60 SE10      30.10F
BATON ROUGE    MOSUNNY   87  70  56 E9        30.06F
BOOTHVILLE     SUNNY     82  70  66 E9        30.11F
BELLE CHASSE   PTSUNNY   84  72  67 E12G17    30.09F
BOGALUSA*        N/A     86  69  56 SE7       30.11F
GALLIANO*      MOSUNNY   85  70  59 SE9       30.09F
NEW ROADS*       N/A     85  73  66 SE9       30.04F
GONZALES*        N/A     84  71  64 SE7       30.05F
HAMMOND*       MOSUNNY   86  68  54 SE12      30.08F
HOUMA*         MOSUNNY   84  73  70 S13       30.09F
PORT FOURCHON* MOSUNNY   81  72  74 SE12      30.09F

$$

MSZ070-080>082-261800-
SOUTHERN MISSISSIPPI

CITY           SKY/WX    TMP DP  RH WIND       PRES   REMARKS
MCCOMB         CLOUDY    83  68  60 S8        30.09F
GULFPORT       SUNNY     82  69  64 SE13      30.11F
BILOXI         SUNNY     83  72  69 SE13      30.11F
PASCAGOULA     MOSUNNY   84  69  60 SE9       30.12F
STENNIS ARPT*  MOSUNNY   82  64  54 SE7       30.11F

$$

COASTAL OBSERVATIONS
LAKE AND NEARSHORE STATIONS

STATION/POSITION TIME  TEMP    WIND        PRES    WAVE
                       AIR SEA DIR/SP/G            HT/PER
                 (UTC) (F)     (DEG/KT/KT) (MB)    (FT/S)
PASCAGOULA       1600   82     130/  9/ 14 1020.1
WAVELAND YACHT   1600   79 80  140/ 10/ 12 1019.9
GRAND ISLE       1600   81 82  150/  8/ 10 1019.7
SOUTHWEST PASS   1600          150/  2/  5   N/A
NEW CANAL        1600   83 80  160/  6/ 12 1018.6
SHELL BEACH      1600   82 81  160/  9/ 12 1020.0

OFFSHORE STATIONS

STATION/POSITION TIME  TEMP    WIND        PRES    WAVE
                       AIR SEA DIR/SP/G            HT/PER
                 (UTC) (F)     (DEG/KT/KT) (MB)    (FT/S)
64 S DAUPHIN ISL 1600   78 79  120/  8/ 10 1020.0

$$





USA.gov is the U.S. government's official web portal to all federal, state and local government web resources and services.